MSR69 HELX-HECA

Flight info

Callsign MSR69
Flight time 0h 50m
Altitude 24000
Route LXR A727 CVO
Aircraft A21N/M-SDE3FGHIRWY/LB1

Departure

Time 2026-05-04 13:54
Airport Luxor International Airport (HELX)

Arrival

Time 2026-05-04 14:44
Airport Cairo International Airport (HECA)
Time Latitude Longitude Altitude Speed Heading
2026-05-04 13:23 25.67271 32.70109 292 ft 0 kts 299°
2026-05-04 13:42 25.67266 32.70119 292 ft 2 kts 299°
2026-05-04 13:43 25.67259 32.70133 292 ft 2 kts 299°
2026-05-04 13:43 25.67251 32.70148 292 ft 2 kts 299°
2026-05-04 13:43 25.67244 32.70162 292 ft 1 kts 299°
2026-05-04 13:43 25.67239 32.70173 293 ft 2 kts 293°
2026-05-04 13:44 25.67235 32.70191 293 ft 2 kts 274°
2026-05-04 13:44 25.67235 32.70208 293 ft 2 kts 258°
2026-05-04 13:44 25.67240 32.70225 292 ft 2 kts 243°
2026-05-04 13:44 25.67249 32.70239 292 ft 2 kts 227°
2026-05-04 13:45 25.67261 32.70250 292 ft 1 kts 212°
2026-05-04 13:45 25.67267 32.70254 292 ft 1 kts 208°
2026-05-04 13:48 25.67254 32.70246 292 ft 3 kts 208°
2026-05-04 13:48 25.67225 32.70229 293 ft 5 kts 208°
2026-05-04 13:49 25.67188 32.70208 293 ft 6 kts 207°
2026-05-04 13:49 25.67143 32.70182 294 ft 7 kts 207°
2026-05-04 13:49 25.67085 32.70178 295 ft 10 kts 137°
2026-05-04 13:49 25.67037 32.70276 296 ft 16 kts 116°
2026-05-04 13:50 25.66979 32.70388 298 ft 14 kts 140°
2026-05-04 13:50 25.66887 32.70371 300 ft 13 kts 207°
2026-05-04 13:50 25.66800 32.70327 301 ft 13 kts 202°
2026-05-04 13:50 25.66714 32.70289 302 ft 13 kts 202°
2026-05-04 13:51 25.66622 32.70246 303 ft 15 kts 203°
2026-05-04 13:51 25.66523 32.70200 304 ft 15 kts 202°
2026-05-04 13:51 25.66426 32.70156 305 ft 14 kts 203°
2026-05-04 13:51 25.66336 32.70114 307 ft 13 kts 202°
2026-05-04 13:52 25.66157 32.70032 310 ft 15 kts 202°
2026-05-04 13:52 25.66048 32.69982 312 ft 23 kts 202°
2026-05-04 13:52 25.65921 32.69940 312 ft 15 kts 167°
2026-05-04 13:53 25.65879 32.70018 314 ft 11 kts 107°
2026-05-04 13:53 25.65895 32.70089 314 ft 10 kts 22°
2026-05-04 13:53 25.65992 32.70134 313 ft 31 kts 23°
2026-05-04 13:54 25.67345 32.70756 300 ft 165 kts 20°
2026-05-04 13:54 25.68477 32.71276 580 ft 187 kts 20°
2026-05-04 13:54 25.71047 32.72419 2037 ft 195 kts 14°
2026-05-04 13:55 25.72416 32.72543 2567 ft 203 kts 347°
2026-05-04 13:55 25.75267 32.71131 3503 ft 238 kts 340°
2026-05-04 13:55 25.76937 32.70593 4085 ft 252 kts 343°
2026-05-04 13:56 25.78694 32.70071 4896 ft 258 kts 343°
2026-05-04 13:56 25.80459 32.69567 5723 ft 262 kts 343°
2026-05-04 13:56 25.84082 32.68563 7354 ft 271 kts 341°
2026-05-04 13:57 25.85928 32.68059 8144 ft 275 kts 340°
2026-05-04 13:57 25.87828 32.67542 8932 ft 280 kts 340°
2026-05-04 13:58 25.93755 32.65912 10918 ft 306 kts 339°
2026-05-04 13:58 25.98197 32.64687 11673 ft 342 kts 340°
2026-05-04 13:58 26.00626 32.64025 12098 ft 358 kts 340°
2026-05-04 13:59 26.03143 32.63344 12794 ft 364 kts 340°
2026-05-04 13:59 26.05659 32.62666 13532 ft 367 kts 340°
2026-05-04 13:59 26.10841 32.61265 15002 ft 374 kts 340°
2026-05-04 14:00 26.13462 32.60554 15717 ft 377 kts 340°
2026-05-04 14:00 26.18720 32.59124 17071 ft 385 kts 340°
2026-05-04 14:00 26.21412 32.58391 17757 ft 387 kts 340°
2026-05-04 14:01 26.24071 32.57667 18398 ft 391 kts 340°
2026-05-04 14:01 26.26782 32.56926 19050 ft 395 kts 340°
2026-05-04 14:01 26.32229 32.55440 20299 ft 401 kts 340°
2026-05-04 14:02 26.35010 32.54679 20904 ft 404 kts 340°
2026-05-04 14:02 26.37780 32.53922 21482 ft 407 kts 340°
2026-05-04 14:02 26.40632 32.53142 22062 ft 411 kts 340°
2026-05-04 14:02 26.43447 32.52372 22616 ft 413 kts 340°
2026-05-04 14:03 26.46293 32.51593 23137 ft 417 kts 340°
2026-05-04 14:03 26.49125 32.50818 23619 ft 420 kts 340°
2026-05-04 14:03 26.52039 32.50020 23974 ft 424 kts 340°
2026-05-04 14:03 26.54903 32.49236 24026 ft 424 kts 340°
2026-05-04 14:04 26.60705 32.47646 24032 ft 424 kts 340°
2026-05-04 14:04 26.63600 32.46852 24033 ft 424 kts 340°
2026-05-04 14:04 26.66487 32.46058 24035 ft 424 kts 340°
2026-05-04 14:05 26.72299 32.44461 24035 ft 423 kts 340°
2026-05-04 14:05 26.75207 32.43660 24037 ft 423 kts 340°
2026-05-04 14:05 26.78087 32.42868 24036 ft 423 kts 340°
2026-05-04 14:06 26.81004 32.42062 24042 ft 423 kts 340°
2026-05-04 14:06 26.83894 32.41265 24040 ft 424 kts 340°
2026-05-04 14:06 26.86817 32.40459 24041 ft 425 kts 340°
2026-05-04 14:06 26.89708 32.39661 24044 ft 425 kts 340°
2026-05-04 14:07 26.92617 32.38859 24050 ft 428 kts 340°
2026-05-04 14:07 26.95553 32.38042 24052 ft 442 kts 340°
2026-05-04 14:07 26.98604 32.37194 24050 ft 456 kts 340°
2026-05-04 14:07 27.01752 32.36320 24047 ft 468 kts 340°
2026-05-04 14:08 27.04989 32.35424 24046 ft 479 kts 341°
2026-05-04 14:08 27.08267 32.34517 24048 ft 487 kts 340°
2026-05-04 14:08 27.11633 32.33589 24050 ft 488 kts 340°
2026-05-04 14:08 27.14963 32.32671 24053 ft 488 kts 340°
2026-05-04 14:09 27.21570 32.30841 24052 ft 488 kts 340°
2026-05-04 14:09 27.24923 32.29910 24055 ft 487 kts 340°
2026-05-04 14:10 27.31611 32.28030 24051 ft 487 kts 339°
2026-05-04 14:10 27.34915 32.27007 24054 ft 486 kts 338°
2026-05-04 14:10 27.38189 32.25961 24054 ft 486 kts 338°
2026-05-04 14:10 27.41544 32.24884 24052 ft 486 kts 338°
2026-05-04 14:11 27.44828 32.23832 24053 ft 485 kts 338°
2026-05-04 14:11 27.51431 32.21726 24057 ft 485 kts 338°
2026-05-04 14:11 27.54768 32.20664 24056 ft 485 kts 338°
2026-05-04 14:12 27.58062 32.19616 24058 ft 485 kts 338°
2026-05-04 14:12 27.61380 32.18561 24059 ft 485 kts 338°
2026-05-04 14:12 27.67990 32.16458 24058 ft 484 kts 338°
2026-05-04 14:13 27.71250 32.15420 24057 ft 485 kts 338°
2026-05-04 14:13 27.74557 32.14366 24056 ft 484 kts 338°
2026-05-04 14:13 27.77836 32.13319 24057 ft 485 kts 338°
2026-05-04 14:13 27.81119 32.12271 24056 ft 484 kts 338°
2026-05-04 14:14 27.84420 32.11215 24055 ft 484 kts 338°
2026-05-04 14:14 27.90954 32.09126 24057 ft 484 kts 338°
2026-05-04 14:14 27.94201 32.08085 24060 ft 484 kts 338°
2026-05-04 14:15 28.00710 32.06000 24059 ft 482 kts 337°
2026-05-04 14:15 28.07253 32.03925 24057 ft 483 kts 338°
2026-05-04 14:16 28.13879 32.01857 24060 ft 484 kts 338°
2026-05-04 14:16 28.17132 32.00841 24053 ft 484 kts 338°
2026-05-04 14:17 28.23634 31.98806 24056 ft 483 kts 338°
2026-05-04 14:17 28.26913 31.97778 24056 ft 482 kts 338°
2026-05-04 14:17 28.33397 31.95739 24056 ft 482 kts 338°
2026-05-04 14:18 28.36616 31.94726 24054 ft 483 kts 338°
2026-05-04 14:18 28.43167 31.92661 24055 ft 482 kts 338°
2026-05-04 14:19 28.49670 31.90611 24057 ft 482 kts 338°
2026-05-04 14:19 28.52954 31.89575 24054 ft 479 kts 338°
2026-05-04 14:19 28.56237 31.88538 24055 ft 479 kts 338°
2026-05-04 14:19 28.59522 31.87499 24053 ft 478 kts 337°
2026-05-04 14:20 28.62824 31.86454 24048 ft 478 kts 338°
2026-05-04 14:20 28.66159 31.85396 24051 ft 478 kts 338°
2026-05-04 14:20 28.69376 31.84377 24048 ft 478 kts 338°
2026-05-04 14:21 28.75849 31.82324 24045 ft 477 kts 338°
2026-05-04 14:21 28.79047 31.81308 24043 ft 476 kts 338°
2026-05-04 14:21 28.82273 31.80283 24044 ft 475 kts 338°
2026-05-04 14:21 28.85530 31.79247 23915 ft 477 kts 337°
2026-05-04 14:22 28.88737 31.78227 23697 ft 477 kts 337°
2026-05-04 14:22 28.92001 31.77186 23485 ft 476 kts 337°
2026-05-04 14:22 28.95241 31.76154 23228 ft 474 kts 337°
2026-05-04 14:22 28.98449 31.75131 22970 ft 472 kts 337°
2026-05-04 14:23 29.04867 31.73067 22306 ft 469 kts 337°
2026-05-04 14:23 29.08035 31.72043 21685 ft 465 kts 337°
2026-05-04 14:23 29.11156 31.71034 20955 ft 460 kts 337°
2026-05-04 14:24 29.14298 31.70016 20238 ft 453 kts 337°
2026-05-04 14:24 29.17310 31.69039 19606 ft 449 kts 337°
2026-05-04 14:24 29.20344 31.68052 18953 ft 446 kts 337°
2026-05-04 14:24 29.23366 31.67069 18333 ft 443 kts 337°
2026-05-04 14:25 29.26312 31.66111 17754 ft 439 kts 337°
2026-05-04 14:25 29.32156 31.64208 16646 ft 430 kts 338°
2026-05-04 14:25 29.35011 31.63277 16109 ft 425 kts 338°
2026-05-04 14:26 29.37849 31.62352 15556 ft 422 kts 338°
2026-05-04 14:26 29.40702 31.61420 15005 ft 418 kts 338°
2026-05-04 14:26 29.43499 31.60506 14450 ft 414 kts 339°
2026-05-04 14:26 29.46251 31.59609 13924 ft 410 kts 339°
2026-05-04 14:27 29.48990 31.58713 13365 ft 407 kts 339°
2026-05-04 14:27 29.51683 31.57832 12831 ft 403 kts 339°
2026-05-04 14:27 29.54383 31.56948 12270 ft 400 kts 339°
2026-05-04 14:27 29.57043 31.56078 11716 ft 397 kts 340°
2026-05-04 14:28 29.59698 31.55207 11155 ft 394 kts 340°
2026-05-04 14:28 29.62316 31.54349 10817 ft 391 kts 340°
2026-05-04 14:28 29.64937 31.53490 10623 ft 391 kts 340°
2026-05-04 14:28 29.67568 31.52629 10423 ft 389 kts 340°
2026-05-04 14:29 29.72988 31.52138 10035 ft 399 kts
2026-05-04 14:29 29.78460 31.52879 9118 ft 391 kts
2026-05-04 14:30 29.81158 31.53254 8667 ft 388 kts
2026-05-04 14:30 29.83830 31.53620 8219 ft 385 kts
2026-05-04 14:30 29.89091 31.54327 7334 ft 378 kts
2026-05-04 14:31 29.91667 31.54669 6791 ft 372 kts
2026-05-04 14:31 29.96796 31.55349 5702 ft 366 kts
2026-05-04 14:32 30.01839 31.56022 4761 ft 362 kts
2026-05-04 14:32 30.04303 31.56350 4297 ft 360 kts
2026-05-04 14:32 30.06818 31.56684 3832 ft 357 kts
2026-05-04 14:32 30.09274 31.57009 3739 ft 358 kts
2026-05-04 14:33 30.11801 31.57344 3695 ft 358 kts
2026-05-04 14:33 30.14286 31.57673 3481 ft 357 kts
2026-05-04 14:33 30.16721 31.58301 3215 ft 360 kts 19°
2026-05-04 14:33 30.18836 31.59873 3016 ft 366 kts 40°
2026-05-04 14:34 30.20352 31.62234 2791 ft 368 kts 60°
2026-05-04 14:34 30.21040 31.65040 2539 ft 356 kts 83°
2026-05-04 14:34 30.20870 31.67806 2301 ft 335 kts 97°
2026-05-04 14:34 30.20575 31.70421 2063 ft 313 kts 94°
2026-05-04 14:35 30.20346 31.72857 1997 ft 288 kts 94°
2026-05-04 14:35 30.20213 31.75141 1986 ft 267 kts 83°
2026-05-04 14:35 30.20767 31.77099 1974 ft 239 kts 50°
2026-05-04 14:35 30.21967 31.78272 1982 ft 215 kts 17°
2026-05-04 14:36 30.23369 31.78426 1973 ft 196 kts 341°
2026-05-04 14:36 30.24484 31.77586 1995 ft 193 kts 306°
2026-05-04 14:36 30.24896 31.76106 2000 ft 198 kts 269°
2026-05-04 14:36 30.24429 31.74581 2018 ft 206 kts 241°
2026-05-04 14:37 30.23719 31.73146 2001 ft 201 kts 257°
2026-05-04 14:37 30.23460 31.71648 2081 ft 180 kts 266°
2026-05-04 14:37 30.23325 31.70256 2009 ft 163 kts 268°
2026-05-04 14:37 30.23206 31.69033 1967 ft 145 kts 269°
2026-05-04 14:38 30.23086 31.67874 1985 ft 144 kts 269°
2026-05-04 14:38 30.22972 31.66728 1993 ft 144 kts 269°
2026-05-04 14:38 30.22858 31.65572 2002 ft 143 kts 268°
2026-05-04 14:38 30.22752 31.64428 2003 ft 143 kts 269°
2026-05-04 14:39 30.22638 31.63259 2006 ft 145 kts 268°
2026-05-04 14:39 30.22529 31.62110 2004 ft 145 kts 269°
2026-05-04 14:39 30.22416 31.60934 2006 ft 145 kts 269°
2026-05-04 14:40 30.21939 31.58687 2002 ft 147 kts 248°
2026-05-04 14:40 30.21378 31.57667 2025 ft 148 kts 242°
2026-05-04 14:40 30.20757 31.56715 2004 ft 141 kts 238°
2026-05-04 14:40 30.20121 31.55802 1999 ft 140 kts 238°
2026-05-04 14:41 30.19490 31.54932 1992 ft 140 kts 237°
2026-05-04 14:41 30.18847 31.54065 2003 ft 140 kts 237°
2026-05-04 14:41 30.17552 31.52341 1974 ft 141 kts 236°
2026-05-04 14:42 30.16258 31.50624 1627 ft 140 kts 235°
2026-05-04 14:42 30.15615 31.49770 1449 ft 139 kts 235°
2026-05-04 14:42 30.14968 31.48911 1262 ft 139 kts 236°
2026-05-04 14:43 30.14312 31.48038 1067 ft 141 kts 235°
2026-05-04 14:43 30.13664 31.47176 885 ft 139 kts 235°
2026-05-04 14:43 30.13030 31.46336 703 ft 139 kts 234°
2026-05-04 14:43 30.12391 31.45478 536 ft 139 kts 233°
2026-05-04 14:44 30.11753 31.44630 398 ft 130 kts 234°
2026-05-04 14:44 30.11234 31.43922 388 ft 96 kts 228°
2026-05-04 14:44 30.10842 31.43401 388 ft 61 kts 229°
2026-05-04 14:44 30.10627 31.43112 388 ft 28 kts 231°
2026-05-04 14:45 30.10530 31.42921 388 ft 26 kts 250°
2026-05-04 14:45 30.10482 31.42725 388 ft 23 kts 256°
2026-05-04 14:45 30.10427 31.42552 388 ft 21 kts 240°
2026-05-04 14:45 30.10331 31.42417 387 ft 21 kts 230°
2026-05-04 14:46 30.10236 31.42291 387 ft 20 kts 229°
2026-05-04 14:46 30.10141 31.42161 387 ft 20 kts 229°
2026-05-04 14:46 30.10043 31.42031 387 ft 21 kts 229°
2026-05-04 14:46 30.09941 31.41895 387 ft 21 kts 230°
2026-05-04 14:47 30.09899 31.41746 387 ft 20 kts 301°
2026-05-04 14:47 30.09915 31.41594 387 ft 19 kts 259°
2026-05-04 14:47 30.09889 31.41442 387 ft 18 kts 259°
2026-05-04 14:47 30.09864 31.41285 387 ft 21 kts 261°
2026-05-04 14:48 30.09834 31.41109 387 ft 22 kts 258°
2026-05-04 14:48 30.09806 31.40930 387 ft 22 kts 262°
2026-05-04 14:48 30.09800 31.40753 387 ft 22 kts 302°
2026-05-04 14:48 30.09919 31.40629 387 ft 22 kts 319°
2026-05-04 14:49 30.10039 31.40511 387 ft 22 kts 319°
2026-05-04 14:49 30.10158 31.40392 387 ft 22 kts 320°
2026-05-04 14:49 30.10276 31.40274 386 ft 22 kts 319°
2026-05-04 14:49 30.10387 31.40164 386 ft 16 kts 319°
2026-05-04 14:50 30.10424 31.40128 386 ft 1 kts 320°
2026-05-04 14:50 30.10429 31.40123 386 ft 2 kts 320°
2026-05-04 14:50 30.10437 31.40115 386 ft 1 kts 320°
2026-05-04 14:50 30.10450 31.40096 386 ft 7 kts 289°
2026-05-04 14:51 30.10418 31.40021 386 ft 11 kts 227°
2026-05-04 14:51 30.10364 31.39951 386 ft 12 kts 229°
2026-05-04 14:51 30.10307 31.39873 386 ft 15 kts 230°
2026-05-04 14:51 30.10210 31.39743 386 ft 23 kts 229°
2026-05-04 14:52 30.10133 31.39608 386 ft 18 kts 278°
2026-05-04 14:52 30.10234 31.39622 386 ft 17 kts 49°
2026-05-04 14:52 30.10316 31.39728 386 ft 17 kts 47°
2026-05-04 14:52 30.10394 31.39835 386 ft 17 kts 50°
2026-05-04 14:53 30.10503 31.39867 386 ft 17 kts 346°
2026-05-04 14:53 30.10629 31.39828 386 ft 18 kts 345°
2026-05-04 14:53 30.10748 31.39791 386 ft 14 kts 346°
2026-05-04 14:53 30.10826 31.39778 386 ft 9 kts 24°
2026-05-04 14:54 30.10850 31.39833 386 ft 5 kts 71°
2026-05-04 14:54 30.10855 31.39853 386 ft 0 kts 74°
2026-05-04 14:54 30.10856 31.39855 386 ft 0 kts 74°